Weather History for Milton, FL

Change the Weather History Date:

Sunday, November 6, 2011

  Actual Average (KNSE) Record (KNSE)
Temperature  
Mean Temperature 60 °F -  
Max Temperature 73 °F 70 °F 84 °F (2003)
Min Temperature 48 °F 51 °F 37 °F (1998)
Degree Days  
Heating Degree Days 5    
Growing Degree Days 10 (Base 50)    
Moisture  
Dew Point 47 °F    
Average Humidity 64    
Maximum Humidity 84    
Minimum Humidity 53    
Precipitation  
Precipitation 0.00 in - - ()
Sea Level Pressure  
Sea Level Pressure 30.21 in    
Wind  
Wind Speed 9 mph (ENE)    
Max Wind Speed 16 mph    
Max Gust Speed 21 mph    
Visibility 10 miles    
Events      
Averages and records for this station are not official NWS values.
T = Trace of Precipitation, MM = Missing Value Source: NWS Daily Summary

Daily Weather History Graph

Daily Weather History Graph

Search for Another Location

Airport:

Trip Planner

Search our weather history database for the weather conditions in past years. The results will help you decide how hot, cold, wet, or windy it might be!

Date:

Astronomy

Nov. 06, 2011 Rise Set
Actual Time 6:06 AM CST 4:56 PM CST
Civil Twilight 5:41 AM CST 5:21 PM CST
Nautical Twilight 5:12 AM CST 5:50 PM CST
Astronomical Twilight 4:44 AM CST 6:18 PM CST
Moon 2:29 PM CST (11/6) 2:26 AM CST (11/6)
Length of Visible Light 11h 39m
Length of Day
10h 49m
Waxing Gibbous, 86% of the Moon is Illuminated
Nov 6
Waxing Gibbous
Nov 10
Full
Nov 18
Last Quarter
Nov 25
New
Dec 2
First Quarter

Hourly Weather History & Observations

Time (CST) Temp. Dew Point Humidity Pressure Visibility Wind Dir Wind Speed Gust Speed Precip Events Conditions
12:56 AM 52.0 °F 35.1 °F 53% 30.17 in 10.0 mi East 10.4 mph - N/A   Clear
1:56 AM 51.1 °F 35.1 °F 54% 30.17 in 10.0 mi East 9.2 mph - N/A   Clear
1:56 AM 50.0 °F 36.0 °F 59% 30.17 in 10.0 mi ENE 8.1 mph - N/A   Clear
2:56 AM 48.0 °F 36.0 °F 63% 30.17 in 10.0 mi East 8.1 mph - N/A   Clear
3:56 AM 48.9 °F 37.9 °F 66% 30.17 in 10.0 mi ENE 9.2 mph - N/A   Clear
4:56 AM 48.9 °F 39.0 °F 69% 30.18 in 10.0 mi ENE 9.2 mph - N/A   Clear
5:56 AM 48.9 °F 39.0 °F 69% 30.21 in 10.0 mi ENE 11.5 mph - N/A   Clear
6:56 AM 50.0 °F 39.9 °F 68% 30.25 in 10.0 mi ENE 11.5 mph - N/A   Scattered Clouds
7:56 AM 54.0 °F 41.0 °F 62% 30.26 in 10.0 mi East 16.1 mph 20.7 mph N/A   Partly Cloudy
8:56 AM 57.0 °F 44.1 °F 62% 30.27 in 10.0 mi ENE 12.7 mph - N/A   Partly Cloudy
9:56 AM 61.0 °F 46.9 °F 60% 30.27 in 10.0 mi ENE 11.5 mph - N/A   Overcast
10:56 AM 64.9 °F 48.9 °F 56% 30.26 in 10.0 mi NE 8.1 mph - N/A   Overcast
11:56 AM 66.0 °F 51.1 °F 59% 30.23 in 10.0 mi NE 10.4 mph - N/A   Overcast
12:56 PM 69.1 °F 52.0 °F 54% 30.20 in 10.0 mi East 6.9 mph - N/A   Overcast
1:56 PM 70.0 °F 53.1 °F 55% 30.18 in 10.0 mi NE 5.8 mph - N/A   Mostly Cloudy
2:56 PM 71.1 °F 54.0 °F 55% 30.17 in 10.0 mi East 9.2 mph - N/A   Clear
3:56 PM 72.0 °F 54.0 °F 53% 30.17 in 10.0 mi East 6.9 mph - N/A   Clear
4:56 PM 66.9 °F 54.0 °F 63% 30.17 in 10.0 mi ENE 5.8 mph - N/A   Clear
5:56 PM 64.0 °F 54.0 °F 70% 30.19 in 10.0 mi ENE 5.8 mph - N/A   Clear
6:56 PM 63.0 °F 54.0 °F 72% 30.21 in 10.0 mi ENE 4.6 mph - N/A   Partly Cloudy
7:56 PM 62.1 °F 54.0 °F 75% 30.22 in 10.0 mi ENE 4.6 mph - N/A   Clear
8:56 PM 61.0 °F 54.0 °F 78% 30.22 in 10.0 mi ENE 6.9 mph - N/A   Mostly Cloudy
9:56 PM 59.0 °F 53.1 °F 81% 30.23 in 10.0 mi ENE 6.9 mph - N/A   Partly Cloudy
10:56 PM 57.9 °F 53.1 °F 84% 30.23 in 10.0 mi ENE 9.2 mph - N/A   Clear